Terminal Aerodrome Forecast
Issued by NWS

Home | Current Version | Previous Version | Text Only | Print | Product List | Glossary On
Versions: 1 2 3 4 5 6 7 8 9 10 11 12 13 14 15 16 17 18 19 20 21 22 23 24 25 26 27 28 29 30 31 32 33 34 35 36 37 38 39 40 41 42 43 44
000
FTUS45 KPSR 041722
TAFIWA
TAF
KIWA 041722Z 0418/0518 22009KT P6SM SCT100 BKN200
     FM050400 18011KT P6SM VCTS SCT080CB BKN120 OVC150
     FM050700 11007KT P6SM BKN070 OVC100=

USA.gov is the U.S. government's official web portal to all federal, state and local government web resources and services.